STARLINK-4437, 53506

Orbit data source: Space-Track

STARLINK-4437, 53506 is a payload satellite owned by SpaceX/Seattle (US) in SSO that was launched on Fri, 12 Aug 2022 UTC via an FALCON 9 launch vehicle from the Air Force Western Test Range (AFWTR). Payload-class satellites include a variety of spacecraft equipped with specific instruments for various scientific and technological missions. These include communications satellites like Starlink; space stations such as the ISS; scientific satellites like the Hubble; Earth observation satellites from companies like Planet Labs, Umbra, and HawkEye 360; GPS; miniature CubeSats for education and research; and military/defense satellites.

Loading next visibility...
Identifier
53506, 2022-099AT
Orbit
SSO
Country
Flag of USUS
Related business
Manufacturer
SpaceX/Seattle
Mission
Operational Commercial Communications
Bus & Motor
STARLINK, Unknown motor
Mass
300 kg wet, ~275 kg dry
Launch date (UTC)
2022-08-12 (3 years ago)
Launch vehicle
FALCON 9
Launch site
Air Force Western Test Range (AFWTR)
Object type
Payload
Rocket body
Debris
Shape & HBR
Box + 1 Pan, 10.1 m
Radar Cross Section
13.562 m², Large (>1 m²)

Expand to show TLE details & history
Last TLE update: 5 hours ago

TLE from 5 hours ago
0 STARLINK-4437
1 53506U 22099AT  25293.61955276  .00005847  00000-0  40896-3 0  9997
2 53506  97.6048  53.1005 0001637  84.1275 276.0138 15.05661609174977
Epoch: 2025-10-20T14:52Z
TLE epoch observation values (Epoch: 2025-10-20T14:52:09.358Z)
Latitude
-0.00006°
Longitude
160.74225°
Altitude
552.422 km
Speed
7.586 km/s
True Right ascension
03h 32m 24s
True Declination
0° 00' 00"
Sunlit
Object was in full shadow at epoch
Visualization orbit readout
Latitude
Unknown
Longitude
Unknown
Altitude
Unknown
Speed
Unknown
Apparent Right ascension
Unknown
Apparent Declination
Unknown
Sunlit
N/A
Visualization observer readout
Local Sidereal Time
15:07:36
Azimuth
Unknown
Elevation
Unknown
Doppler factor
Unknown
Orbital elements
Apogee altitude
547.603 km
Perigee altitude
545.336 km
Semi-major axis
6,924.606 km
Eccentricity
0.00016
Inclination
97.6048°
RAAN
53.1005°
Arg. of periapsis
84.1275°
True anomaly
275.99514°
Mean anomaly
276.0138°
Eccentric anomaly
276.00447°
Mean motion
3.76661 °/min
Orbital period
95.58 mins
BSTAR
0.00040896
Loading maneuver chart data...
Computing Atmospheric mass density...
Loading historical data...
Loading historical data...
Loading historical data...
Loading historical data...
Loading historical data...
Loading historical data...
Loading historical data...

Documentation

Showing up to 5 results
|